Aérodrome :
LOGIN :

S'inscrire | Disclaimer

   EN    FR    IT 

 










Légende :    VFR   VFR Marginal   IFR   IFR Intensif   IFR Très Intensif
Visi : 
Plafond : 
>= 8 km
>= 3000ft
5 à 8 km
1000 à 3000 ft
1500m à 5 km
500 à 1000 ft
800 à 1500m
200 à 500 ft
< 800m
< 200 ft
Symboles :   Orages  Brouillard  Fortes neiges  Fortes précipitations  Vent > 20 kt
SIGMETs :   Divers  Orages  Givrage  Turbulence  Onde Orograph.  Cendres Volcan.







- Altitude de l'aérodrome : 220 ft
- Code IATA : CWL
- Voir les cartes d'approche


EGFF - Cardiff Rhoose

DERNIER METAR :
  • 232350Z AUTO 29010KT 9999 NCD 14/12 Q1014

METARs EXPIRÉS :
  • 232320Z AUTO 28009KT 9999 NCD 14/12 Q1014
  • 232250Z AUTO 29007KT 9999 NCD 14/12 Q1014
  • 232220Z AUTO 28009KT 9999 NCD 14/12 Q1014
  • 232150Z AUTO 29009KT 9999 NCD 14/12 Q1014
  • 232120Z AUTO 29008KT 9999 NCD 14/12 Q1014

TAF TAF EGFF
Valide du 24 à 00h jusqu'au 25 à 00h UTC


232301Z 2400/2424 29012KT 9999 FEW014
PROB30
TEMPO 2400/2403 BKN014
ATIS : +44 1446 729 319
Pas de NOTAMs connus pour ce terrain.



MET'MAP, la Météo Aéronautique d'un coup d'oeil ! - Copyright ORBIFLY Décembre 2007 - Disclaimer

ORBIFLY MET'MAP TEAM :

Programmation & Développement : Alexandra Zaïnal
Conception & Développement : Baudouin d'Aumeries
Co-Programmation & Développement : Marc-Olivier Méhu
Soutien technique & logistique : Manuel Goepfert

Contact : metmap@orbifly.com




SOURCES & CREDITS :

   NOAA